Year,Month,Day,Hour,Minute,Value (Times are PST for temperature in C)
2009,07,04,00,00,19.90
2009,07,04,00,06,20.10
2009,07,04,00,07,20.10
2009,07,04,00,08,20.20
2009,07,04,00,09,20.20
2009,07,04,00,10,20.20
2009,07,04,00,11,20.20
2009,07,04,00,12,20.20
2009,07,04,00,13,20.20
2009,07,04,00,14,20.20
2009,07,04,00,15,20.20
2009,07,04,00,16,20.20
2009,07,04,00,17,20.20
2009,07,04,00,18,20.20
2009,07,04,00,19,20.20
2009,07,04,00,20,20.20
2009,07,04,00,21,20.20
2009,07,04,00,22,20.20
2009,07,04,00,23,20.10
2009,07,04,00,24,20.10
2009,07,04,00,25,20.10
2009,07,04,00,26,20.10
2009,07,04,00,27,20.10
2009,07,04,00,28,20.10
2009,07,04,00,29,20.10
2009,07,04,00,30,20.00
2009,07,04,00,31,19.90
2009,07,04,00,32,19.90
2009,07,04,00,33,19.90
2009,07,04,00,34,19.90
2009,07,04,00,35,19.90
2009,07,04,00,36,19.90
2009,07,04,00,37,19.90
2009,07,04,00,38,19.90
2009,07,04,00,39,19.90
2009,07,04,00,40,19.90
2009,07,04,00,41,19.90
2009,07,04,00,42,19.90
2009,07,04,00,43,19.80
2009,07,04,00,44,19.80
2009,07,04,00,45,19.80
2009,07,04,00,46,19.80
2009,07,04,00,47,19.70
2009,07,04,00,48,19.70
2009,07,04,00,49,19.70
2009,07,04,00,50,19.70
2009,07,04,00,51,19.70
2009,07,04,00,52,19.70
2009,07,04,00,53,19.60
2009,07,04,00,54,19.60
2009,07,04,00,55,19.60
2009,07,04,00,56,19.60
2009,07,04,00,57,19.60
2009,07,04,00,58,19.60
2009,07,04,00,59,19.60
2009,07,04,01,00,19.60
2009,07,04,01,01,19.50
2009,07,04,01,02,19.50
2009,07,04,01,03,19.50
2009,07,04,01,04,19.50
2009,07,04,01,05,19.40
2009,07,04,01,06,19.40
2009,07,04,01,07,19.40
2009,07,04,01,08,19.40
2009,07,04,01,09,19.30
2009,07,04,01,10,19.30
2009,07,04,01,11,19.30
2009,07,04,01,12,19.40
2009,07,04,01,13,19.40
2009,07,04,01,14,19.40
2009,07,04,01,15,19.40
2009,07,04,01,16,19.40
2009,07,04,01,17,19.30
2009,07,04,01,18,19.30
2009,07,04,01,19,19.40
2009,07,04,01,20,19.30
2009,07,04,01,21,19.30
2009,07,04,01,22,19.30
2009,07,04,01,23,19.30
2009,07,04,01,24,19.30
2009,07,04,01,25,19.30
2009,07,04,01,26,19.30
2009,07,04,01,27,19.30
2009,07,04,01,28,19.20
2009,07,04,01,29,19.20
2009,07,04,01,30,19.20
2009,07,04,01,31,19.20
2009,07,04,01,32,19.20
2009,07,04,01,33,19.20
2009,07,04,01,34,19.20
2009,07,04,01,35,19.20
2009,07,04,01,36,19.20
2009,07,04,01,37,19.10
2009,07,04,01,38,19.10
2009,07,04,01,39,19.10
2009,07,04,01,40,19.10
2009,07,04,01,41,19.10
2009,07,04,01,42,18.90
2009,07,04,01,43,18.90
2009,07,04,01,44,18.90
2009,07,04,01,45,18.90
2009,07,04,01,46,18.90
2009,07,04,01,47,18.80
2009,07,04,01,48,18.80
2009,07,04,01,49,18.70
2009,07,04,01,50,18.70
2009,07,04,01,51,18.60
2009,07,04,01,52,18.60
2009,07,04,01,53,18.50
2009,07,04,01,54,18.40
2009,07,04,01,55,18.40
2009,07,04,01,56,18.40
2009,07,04,01,57,18.30
2009,07,04,01,58,18.20
2009,07,04,01,59,18.20
2009,07,04,02,00,18.20
2009,07,04,02,01,18.10
2009,07,04,02,02,18.00
2009,07,04,02,03,17.90
2009,07,04,02,04,17.90
2009,07,04,02,05,17.90
2009,07,04,02,06,17.80
2009,07,04,02,07,17.80
2009,07,04,02,08,17.70
2009,07,04,02,09,17.60
2009,07,04,02,10,17.60
2009,07,04,02,11,17.50
2009,07,04,02,12,17.50
2009,07,04,02,13,17.40
2009,07,04,02,14,17.40
2009,07,04,02,15,17.30
2009,07,04,02,16,17.30
2009,07,04,02,17,17.20
2009,07,04,02,18,17.10
2009,07,04,02,19,17.10
2009,07,04,02,20,17.00
2009,07,04,02,21,17.00
2009,07,04,02,22,17.00
2009,07,04,02,23,16.90
2009,07,04,02,24,16.90
2009,07,04,02,25,16.80
2009,07,04,02,26,16.80
2009,07,04,02,27,16.70
2009,07,04,02,28,16.70
2009,07,04,02,29,16.70
2009,07,04,02,30,16.60
2009,07,04,02,31,16.60
2009,07,04,02,32,16.50
2009,07,04,02,33,16.40
2009,07,04,02,34,16.40
2009,07,04,02,35,16.40
2009,07,04,02,36,16.40
2009,07,04,02,37,16.30
2009,07,04,02,38,16.30
2009,07,04,02,39,16.20
2009,07,04,02,40,16.20
2009,07,04,02,41,16.20
2009,07,04,02,42,16.10
2009,07,04,02,43,16.10
2009,07,04,02,44,16.10
2009,07,04,02,45,16.10
2009,07,04,02,46,16.00
2009,07,04,02,47,15.90
2009,07,04,02,48,15.90
2009,07,04,02,49,15.80
2009,07,04,02,50,15.80
2009,07,04,02,51,15.80
2009,07,04,02,52,15.80
2009,07,04,02,53,15.70
2009,07,04,02,54,15.70
2009,07,04,02,55,15.60
2009,07,04,02,56,15.60
2009,07,04,02,57,15.50
2009,07,04,02,58,15.50
2009,07,04,02,59,15.40
2009,07,04,03,00,15.40
2009,07,04,03,01,15.30
2009,07,04,03,02,15.30
2009,07,04,03,03,15.30
2009,07,04,03,04,15.30
2009,07,04,03,05,15.20
2009,07,04,03,06,15.20
2009,07,04,03,07,15.20
2009,07,04,03,08,15.10
2009,07,04,03,09,15.10
2009,07,04,03,10,15.10
2009,07,04,03,11,15.00
2009,07,04,03,12,15.00
2009,07,04,03,13,15.00
2009,07,04,03,14,14.90
2009,07,04,03,15,14.90
2009,07,04,03,16,14.90
2009,07,04,03,17,14.90
2009,07,04,03,18,14.90
2009,07,04,03,19,14.90
2009,07,04,03,20,14.80
2009,07,04,03,21,14.80
2009,07,04,03,22,14.80
2009,07,04,03,23,14.80
2009,07,04,03,24,14.80
2009,07,04,03,25,14.80
2009,07,04,03,26,14.80
2009,07,04,03,27,14.80
2009,07,04,03,28,14.80
2009,07,04,03,29,14.80
2009,07,04,03,30,14.80
2009,07,04,03,31,14.80
2009,07,04,03,32,14.80
2009,07,04,03,33,14.70
2009,07,04,03,34,14.70
2009,07,04,03,35,14.70
2009,07,04,03,36,14.70
2009,07,04,03,37,14.70
2009,07,04,03,38,14.70
2009,07,04,03,39,14.60
2009,07,04,03,40,14.60
2009,07,04,03,41,14.60
2009,07,04,03,42,14.60
2009,07,04,03,43,14.50
2009,07,04,03,44,14.50
2009,07,04,03,45,14.40
2009,07,04,03,46,14.40
2009,07,04,03,47,14.40
2009,07,04,03,48,14.40
2009,07,04,03,49,14.30
2009,07,04,03,50,14.30
2009,07,04,03,51,14.30
2009,07,04,03,52,14.30
2009,07,04,03,53,14.20
2009,07,04,03,54,14.20
2009,07,04,03,55,14.20
2009,07,04,03,56,14.20
2009,07,04,03,57,14.30
2009,07,04,03,58,14.30
2009,07,04,03,59,14.30
2009,07,04,04,00,14.30
2009,07,04,04,01,14.30
2009,07,04,04,02,14.30
2009,07,04,04,03,14.30
2009,07,04,04,04,14.30
2009,07,04,04,05,14.30
2009,07,04,04,06,14.30
2009,07,04,04,07,14.30
2009,07,04,04,08,14.30
2009,07,04,04,09,14.30
2009,07,04,04,10,14.30
2009,07,04,04,11,14.30
2009,07,04,04,12,14.20
2009,07,04,04,13,14.20
2009,07,04,04,14,14.20
2009,07,04,04,15,14.20
2009,07,04,04,16,14.20
2009,07,04,04,17,14.20
2009,07,04,04,18,14.20
2009,07,04,04,19,14.20
2009,07,04,04,20,14.20
2009,07,04,04,21,14.20
2009,07,04,04,22,14.20
2009,07,04,04,23,14.20
2009,07,04,04,24,14.20
2009,07,04,04,25,14.10
2009,07,04,04,26,14.10
2009,07,04,04,27,14.10
2009,07,04,04,28,14.00
2009,07,04,04,29,14.00
2009,07,04,04,30,14.00
2009,07,04,04,31,13.90
2009,07,04,04,32,13.90
2009,07,04,04,33,13.80
2009,07,04,04,34,13.80
2009,07,04,04,35,13.80
2009,07,04,04,36,13.70
2009,07,04,04,37,13.70
2009,07,04,04,38,13.70
2009,07,04,04,39,13.70
2009,07,04,04,40,13.60
2009,07,04,04,41,13.60
2009,07,04,04,42,13.60
2009,07,04,04,43,13.50
2009,07,04,04,44,13.50
2009,07,04,04,45,13.50
2009,07,04,04,46,13.50
2009,07,04,04,47,13.40
2009,07,04,04,48,13.40
2009,07,04,04,49,13.40
2009,07,04,04,50,13.40
2009,07,04,04,51,13.30
2009,07,04,04,52,13.30
2009,07,04,04,53,13.30
2009,07,04,04,54,13.30
2009,07,04,04,55,13.30
2009,07,04,04,56,13.30
2009,07,04,04,57,13.30
2009,07,04,04,58,13.30
2009,07,04,04,59,13.30
2009,07,04,05,00,13.30
2009,07,04,05,01,13.30
2009,07,04,05,02,13.30
2009,07,04,05,03,13.30
2009,07,04,05,04,13.30
2009,07,04,05,05,13.30
2009,07,04,05,06,13.30
2009,07,04,05,07,13.30
2009,07,04,05,08,13.30
2009,07,04,05,09,13.30
2009,07,04,05,10,13.30
2009,07,04,05,11,13.30
2009,07,04,05,12,13.30
2009,07,04,05,13,13.30
2009,07,04,05,14,13.30
2009,07,04,05,15,13.30
2009,07,04,05,16,13.30
2009,07,04,05,17,13.30
2009,07,04,05,18,13.30
2009,07,04,05,19,13.30
2009,07,04,05,20,13.20
2009,07,04,05,21,13.20
2009,07,04,05,22,13.20
2009,07,04,05,23,13.20
2009,07,04,05,24,13.20
2009,07,04,05,25,13.20
2009,07,04,05,26,13.20
2009,07,04,05,27,13.20
2009,07,04,05,28,13.10
2009,07,04,05,29,13.10
2009,07,04,05,30,13.10
2009,07,04,05,31,13.10
2009,07,04,05,32,13.10
2009,07,04,05,33,13.10
2009,07,04,05,34,13.10
2009,07,04,05,35,13.10
2009,07,04,05,36,13.10
2009,07,04,05,37,13.10
2009,07,04,05,38,13.10
2009,07,04,05,39,13.10
2009,07,04,05,40,13.10
2009,07,04,05,41,13.10
2009,07,04,05,42,13.10
2009,07,04,05,43,13.10
2009,07,04,05,44,13.10
2009,07,04,05,45,13.10
2009,07,04,05,46,13.10
2009,07,04,05,47,13.10
2009,07,04,05,48,13.10
2009,07,04,05,49,13.10
2009,07,04,05,50,13.10
2009,07,04,05,51,13.10
2009,07,04,05,52,13.10
2009,07,04,05,53,13.20
2009,07,04,05,54,13.20
2009,07,04,05,55,13.20
2009,07,04,05,56,13.20
2009,07,04,05,57,13.20
2009,07,04,05,58,13.20
2009,07,04,05,59,13.20
2009,07,04,06,00,13.20
2009,07,04,06,01,13.30
2009,07,04,06,02,13.30
2009,07,04,06,03,13.30
2009,07,04,06,04,13.30
2009,07,04,06,05,13.30
2009,07,04,06,06,13.30
2009,07,04,06,07,13.30
2009,07,04,06,08,13.30
2009,07,04,06,09,13.30
2009,07,04,06,10,13.30
2009,07,04,06,11,13.30
2009,07,04,06,12,13.30
2009,07,04,06,13,13.30
2009,07,04,06,14,13.30
2009,07,04,06,15,13.30
2009,07,04,06,16,13.30
2009,07,04,06,17,13.40
2009,07,04,06,18,13.40
2009,07,04,06,19,13.40
2009,07,04,06,20,13.40
2009,07,04,06,21,13.50
2009,07,04,06,22,13.50
2009,07,04,06,23,13.50
2009,07,04,06,24,13.50
2009,07,04,06,25,13.60
2009,07,04,06,26,13.60
2009,07,04,06,27,13.60
2009,07,04,06,28,13.60
2009,07,04,06,29,13.70
2009,07,04,06,30,13.70
2009,07,04,06,31,13.70
2009,07,04,06,32,13.70
2009,07,04,06,33,13.70
2009,07,04,06,34,13.70
2009,07,04,06,35,13.70
2009,07,04,06,36,13.70
2009,07,04,06,37,13.70
2009,07,04,06,38,13.70
2009,07,04,06,39,13.70
2009,07,04,06,40,13.70
2009,07,04,06,41,13.70
2009,07,04,06,42,13.70
2009,07,04,06,43,13.70
2009,07,04,06,44,13.80
2009,07,04,06,45,13.80
2009,07,04,06,46,13.80
2009,07,04,06,47,13.90
2009,07,04,06,48,13.90
2009,07,04,06,49,13.90
2009,07,04,06,50,14.00
2009,07,04,06,51,14.00
2009,07,04,06,52,14.00
2009,07,04,06,53,14.10
2009,07,04,06,54,14.10
2009,07,04,06,55,14.10
2009,07,04,06,56,14.20
2009,07,04,06,57,14.20
2009,07,04,06,58,14.20
2009,07,04,06,59,14.20
2009,07,04,07,00,14.20
2009,07,04,07,01,14.20
2009,07,04,07,02,14.30
2009,07,04,07,03,14.30
2009,07,04,07,04,14.30
2009,07,04,07,05,14.40
2009,07,04,07,06,14.40
2009,07,04,07,07,14.50
2009,07,04,07,08,14.50
2009,07,04,07,09,14.60
2009,07,04,07,10,14.60
2009,07,04,07,11,14.70
2009,07,04,07,12,14.80
2009,07,04,07,13,14.80
2009,07,04,07,14,14.90
2009,07,04,07,15,15.00
2009,07,04,07,16,15.10
2009,07,04,07,17,15.10
2009,07,04,07,18,15.20
2009,07,04,07,19,15.20
2009,07,04,07,20,15.30
2009,07,04,07,21,15.30
2009,07,04,07,22,15.30
2009,07,04,07,23,15.40
2009,07,04,07,24,15.50
2009,07,04,07,25,15.60
2009,07,04,07,26,15.70
2009,07,04,07,27,15.80
2009,07,04,07,28,15.90
2009,07,04,07,29,16.00
2009,07,04,07,30,16.10
2009,07,04,07,31,16.20
2009,07,04,07,32,16.30
2009,07,04,07,33,16.40
2009,07,04,07,34,16.60
2009,07,04,07,35,16.70
2009,07,04,07,36,16.80
2009,07,04,07,37,16.90
2009,07,04,07,38,17.00
2009,07,04,07,39,17.10
2009,07,04,07,40,17.20
2009,07,04,07,41,17.30
2009,07,04,07,42,17.30
2009,07,04,07,43,17.40
2009,07,04,07,44,17.50
2009,07,04,07,45,17.50
2009,07,04,07,46,17.60
2009,07,04,07,47,17.70
2009,07,04,07,48,17.80
2009,07,04,07,49,17.90
2009,07,04,07,50,17.90
2009,07,04,07,51,17.90
2009,07,04,07,52,18.00
2009,07,04,07,53,18.10
2009,07,04,07,54,18.20
2009,07,04,07,55,18.20
2009,07,04,07,56,18.30
2009,07,04,07,57,18.30
2009,07,04,07,58,18.40
2009,07,04,07,59,18.40
2009,07,04,08,00,18.50
2009,07,04,08,01,18.50
2009,07,04,08,02,18.60
2009,07,04,08,03,18.60
2009,07,04,08,04,18.60
2009,07,04,08,05,18.70
2009,07,04,08,06,18.70
2009,07,04,08,07,18.70
2009,07,04,08,08,18.80
2009,07,04,08,09,18.80
2009,07,04,08,10,18.90
2009,07,04,08,11,18.90
2009,07,04,08,12,18.90
2009,07,04,08,13,18.90
2009,07,04,08,14,18.90
2009,07,04,08,15,19.00
2009,07,04,08,16,19.10
2009,07,04,08,17,19.10
2009,07,04,08,18,19.10
2009,07,04,08,19,19.10
2009,07,04,08,20,19.10
2009,07,04,08,21,19.10
2009,07,04,08,22,19.10
2009,07,04,08,23,19.10
2009,07,04,08,24,19.10
2009,07,04,08,25,19.20
2009,07,04,08,26,19.20
2009,07,04,08,27,19.20
2009,07,04,08,28,19.20
2009,07,04,08,29,19.20
2009,07,04,08,30,19.20
2009,07,04,08,31,19.20
2009,07,04,08,32,19.20
2009,07,04,08,33,19.20
2009,07,04,08,34,19.30
2009,07,04,08,35,19.30
2009,07,04,08,36,19.30
2009,07,04,08,37,19.30
2009,07,04,08,38,19.30
2009,07,04,08,39,19.30
2009,07,04,08,40,19.30
2009,07,04,08,41,19.30
2009,07,04,08,42,19.40
2009,07,04,08,43,19.40
2009,07,04,08,44,19.40
2009,07,04,08,45,19.50
2009,07,04,08,46,19.50
2009,07,04,08,47,19.60
2009,07,04,08,48,19.60
2009,07,04,08,49,19.60
2009,07,04,08,50,19.70
2009,07,04,08,51,19.70
2009,07,04,08,52,19.70
2009,07,04,08,53,19.70
2009,07,04,08,54,19.70
2009,07,04,08,55,19.60
2009,07,04,08,56,19.60
2009,07,04,08,57,19.60
2009,07,04,08,58,19.60
2009,07,04,08,59,19.60
2009,07,04,09,00,19.50
2009,07,04,09,01,19.50
2009,07,04,09,02,19.50
2009,07,04,09,03,19.50
2009,07,04,09,04,19.50
2009,07,04,09,05,19.50
2009,07,04,09,06,19.50
2009,07,04,09,07,19.50
2009,07,04,09,08,19.50
2009,07,04,09,09,19.60
2009,07,04,09,10,19.70
2009,07,04,09,11,19.70
2009,07,04,09,12,19.80
2009,07,04,09,13,19.80
2009,07,04,09,14,19.90
2009,07,04,09,15,19.90
2009,07,04,09,16,19.90
2009,07,04,09,17,19.90
2009,07,04,09,18,19.90
2009,07,04,09,19,19.90
2009,07,04,09,20,19.90
2009,07,04,09,21,19.90
2009,07,04,09,22,19.90
2009,07,04,09,23,19.90
2009,07,04,09,24,19.90
2009,07,04,09,25,19.90
2009,07,04,09,26,19.80
2009,07,04,09,27,19.80
2009,07,04,09,28,19.80
2009,07,04,09,29,19.80
2009,07,04,09,30,19.70
2009,07,04,09,31,19.70
2009,07,04,09,32,19.80
2009,07,04,09,33,19.70
2009,07,04,09,34,19.70
2009,07,04,09,35,19.70
2009,07,04,09,36,19.60
2009,07,04,09,37,19.60
2009,07,04,09,38,19.60
2009,07,04,09,39,19.60
2009,07,04,09,40,19.70
2009,07,04,09,41,19.70
2009,07,04,09,42,19.70
2009,07,04,09,43,19.80
2009,07,04,09,44,19.80
2009,07,04,09,45,19.90
2009,07,04,09,46,20.00
2009,07,04,09,47,20.10
2009,07,04,09,48,20.20
2009,07,04,09,49,20.20
2009,07,04,09,50,20.20
2009,07,04,09,51,20.20
2009,07,04,09,52,20.20
2009,07,04,09,53,20.20
2009,07,04,09,54,20.10
2009,07,04,09,55,20.10
2009,07,04,09,56,20.10
2009,07,04,09,57,20.10
2009,07,04,09,58,20.10
2009,07,04,09,59,20.10
2009,07,04,10,00,20.10
2009,07,04,10,01,20.10
2009,07,04,10,02,20.00
2009,07,04,10,03,20.00
2009,07,04,10,04,20.10
2009,07,04,10,05,20.10
2009,07,04,10,06,20.20
2009,07,04,10,07,20.20
2009,07,04,10,08,20.30
2009,07,04,10,09,20.40
2009,07,04,10,10,20.50
2009,07,04,10,11,20.60
2009,07,04,10,12,20.60
2009,07,04,10,13,20.60
2009,07,04,10,14,20.60
2009,07,04,10,15,20.60
2009,07,04,10,16,20.60
2009,07,04,10,17,20.60
2009,07,04,10,18,20.50
2009,07,04,10,19,20.50
2009,07,04,10,20,20.50
2009,07,04,10,21,20.50
2009,07,04,10,22,20.50
2009,07,04,10,23,20.40
2009,07,04,10,24,20.30
2009,07,04,10,25,20.20
2009,07,04,10,26,20.10
2009,07,04,10,27,19.90
2009,07,04,10,28,19.90
2009,07,04,10,29,19.80
2009,07,04,10,30,19.80
2009,07,04,10,31,19.70
2009,07,04,10,32,19.70
2009,07,04,10,33,19.70
2009,07,04,10,34,19.70
2009,07,04,10,35,19.70
2009,07,04,10,36,19.70
2009,07,04,10,37,19.80
2009,07,04,10,38,19.80
2009,07,04,10,39,19.80
2009,07,04,10,40,19.90
2009,07,04,10,41,19.90
2009,07,04,10,42,19.90
2009,07,04,10,43,19.90
2009,07,04,10,44,20.00
2009,07,04,10,45,20.10
2009,07,04,10,46,20.20
2009,07,04,10,47,20.20
2009,07,04,10,48,20.20
2009,07,04,10,49,20.20
2009,07,04,10,50,20.30
2009,07,04,10,51,20.30
2009,07,04,10,52,20.30
2009,07,04,10,53,20.30
2009,07,04,10,54,20.30
2009,07,04,10,55,20.30
2009,07,04,10,56,20.20
2009,07,04,10,57,20.20
2009,07,04,10,58,20.20
2009,07,04,10,59,20.30
2009,07,04,11,00,20.30
2009,07,04,11,01,20.30
2009,07,04,11,02,20.30
2009,07,04,11,03,20.30
2009,07,04,11,04,20.30
2009,07,04,11,05,20.40
2009,07,04,11,06,20.40
2009,07,04,11,07,20.50
2009,07,04,11,08,20.50
2009,07,04,11,09,20.60
2009,07,04,11,10,20.70
2009,07,04,11,11,20.70
2009,07,04,11,12,20.80
2009,07,04,11,13,20.80
2009,07,04,11,14,20.90
2009,07,04,11,15,21.00
2009,07,04,11,16,21.00
2009,07,04,11,17,21.10
2009,07,04,11,18,21.00
2009,07,04,11,19,21.00
2009,07,04,11,20,20.90
2009,07,04,11,21,20.90
2009,07,04,11,22,21.00
2009,07,04,11,23,21.00
2009,07,04,11,24,21.00
2009,07,04,11,25,21.00
2009,07,04,11,26,21.00
2009,07,04,11,27,21.10
2009,07,04,11,28,21.00
2009,07,04,11,29,21.00
2009,07,04,11,30,21.10
2009,07,04,11,31,21.20
2009,07,04,11,32,21.30
2009,07,04,11,33,21.30
2009,07,04,11,34,21.30
2009,07,04,11,35,21.20
2009,07,04,11,36,21.10
2009,07,04,11,37,21.00
2009,07,04,11,38,21.00
2009,07,04,11,39,20.90
2009,07,04,11,40,20.90
2009,07,04,11,41,20.90
2009,07,04,11,42,20.80
2009,07,04,11,43,20.80
2009,07,04,11,44,20.80
2009,07,04,11,45,20.80
2009,07,04,11,46,20.80
2009,07,04,11,47,20.80
2009,07,04,11,48,20.90
2009,07,04,11,49,20.90
2009,07,04,11,50,20.90
2009,07,04,11,51,20.90
2009,07,04,11,52,21.00
2009,07,04,11,53,21.00
2009,07,04,11,54,21.10
2009,07,04,11,55,21.10
2009,07,04,11,56,21.10
2009,07,04,11,57,21.20
2009,07,04,11,58,21.20
2009,07,04,11,59,21.20
2009,07,04,12,00,21.20
2009,07,04,12,01,21.20
2009,07,04,12,02,21.30
2009,07,04,12,03,21.30
2009,07,04,12,04,21.30
2009,07,04,12,05,21.30
2009,07,04,12,06,21.30
2009,07,04,12,07,21.40
2009,07,04,12,08,21.40
2009,07,04,12,09,21.40
2009,07,04,12,10,21.50
2009,07,04,12,11,21.60
2009,07,04,12,12,21.60
2009,07,04,12,13,21.60
2009,07,04,12,14,21.60
2009,07,04,12,15,21.60
2009,07,04,12,16,21.80
2009,07,04,12,17,21.90
2009,07,04,12,18,22.00
2009,07,04,12,19,22.10
2009,07,04,12,20,22.20
2009,07,04,12,21,22.30
2009,07,04,12,22,22.40
2009,07,04,12,23,22.30
2009,07,04,12,24,22.20
2009,07,04,12,25,22.10
2009,07,04,12,26,22.00
2009,07,04,12,27,21.90
2009,07,04,12,28,21.90
2009,07,04,12,29,21.90
2009,07,04,12,30,22.00
2009,07,04,12,31,22.00
2009,07,04,12,32,22.10
2009,07,04,12,33,22.20
2009,07,04,12,34,22.20
2009,07,04,12,35,22.30
2009,07,04,12,36,22.40
2009,07,04,12,37,22.50
2009,07,04,12,38,22.50
2009,07,04,12,39,22.50
2009,07,04,12,40,22.50
2009,07,04,12,41,22.50
2009,07,04,12,42,22.60
2009,07,04,12,43,22.70
2009,07,04,12,44,22.80
2009,07,04,12,45,22.80
2009,07,04,12,46,22.80
2009,07,04,12,47,22.90
2009,07,04,12,48,22.90
2009,07,04,12,49,22.80
2009,07,04,12,50,22.90
2009,07,04,12,51,22.90
2009,07,04,12,52,22.90
2009,07,04,12,53,22.80
2009,07,04,12,54,22.80
2009,07,04,12,55,22.80
2009,07,04,12,56,22.80
2009,07,04,12,57,22.80
2009,07,04,12,58,22.70
2009,07,04,12,59,22.70
2009,07,04,13,00,22.70
2009,07,04,13,01,22.60
2009,07,04,13,02,22.60
2009,07,04,13,03,22.60
2009,07,04,13,04,22.60
2009,07,04,13,05,22.60
2009,07,04,13,06,22.60
2009,07,04,13,07,22.60
2009,07,04,13,08,22.70
2009,07,04,13,09,22.80
2009,07,04,13,10,22.90
2009,07,04,13,11,22.90
2009,07,04,13,12,23.00
2009,07,04,13,13,23.10
2009,07,04,13,14,23.20
2009,07,04,13,15,23.10
2009,07,04,13,16,23.10
2009,07,04,13,17,23.10
2009,07,04,13,18,23.10
2009,07,04,13,19,23.10
2009,07,04,13,20,23.10
2009,07,04,13,21,23.10
2009,07,04,13,22,23.10
2009,07,04,13,23,23.10
2009,07,04,13,24,23.10
2009,07,04,13,25,23.30
2009,07,04,13,26,23.30
2009,07,04,13,27,23.40
2009,07,04,13,28,23.60
2009,07,04,13,29,23.70
2009,07,04,13,30,23.70
2009,07,04,13,31,23.80
2009,07,04,13,32,23.90
2009,07,04,13,33,23.90
2009,07,04,13,34,24.00
2009,07,04,13,35,24.10
2009,07,04,13,36,24.10
2009,07,04,13,37,24.10
2009,07,04,13,38,24.10
2009,07,04,13,39,24.10
2009,07,04,13,40,24.10
2009,07,04,13,41,24.10
2009,07,04,13,42,23.90
2009,07,04,13,43,24.00
2009,07,04,13,44,24.10
2009,07,04,13,45,24.10
2009,07,04,13,46,24.10
2009,07,04,13,47,24.10
2009,07,04,13,48,24.10
2009,07,04,13,49,24.10
2009,07,04,13,50,24.10
2009,07,04,13,51,24.10
2009,07,04,13,52,24.10
2009,07,04,13,53,24.10
2009,07,04,13,54,23.90
2009,07,04,13,55,23.90
2009,07,04,13,56,24.00
2009,07,04,13,57,24.10
2009,07,04,13,58,24.20
2009,07,04,13,59,24.30
2009,07,04,14,00,24.50
2009,07,04,14,01,24.60
2009,07,04,14,02,24.80
2009,07,04,14,03,24.90
2009,07,04,14,04,24.90
2009,07,04,14,05,24.90
2009,07,04,14,06,24.80
2009,07,04,14,07,24.70
2009,07,04,14,08,24.60
2009,07,04,14,09,24.60
2009,07,04,14,10,24.50
2009,07,04,14,11,24.60
2009,07,04,14,12,24.70
2009,07,04,14,13,24.70
2009,07,04,14,14,24.80
2009,07,04,14,15,24.90
2009,07,04,14,16,25.10
2009,07,04,14,17,25.20
2009,07,04,14,18,25.40
2009,07,04,14,19,25.50
2009,07,04,14,20,25.60
2009,07,04,14,21,25.70
2009,07,04,14,22,25.70
2009,07,04,14,23,25.60
2009,07,04,14,24,25.50
2009,07,04,14,25,25.50
2009,07,04,14,26,25.60
2009,07,04,14,27,25.50
2009,07,04,14,28,25.50
2009,07,04,14,29,25.60
2009,07,04,14,30,25.60
2009,07,04,14,31,25.60
2009,07,04,14,32,25.50
2009,07,04,14,33,25.50
2009,07,04,14,34,25.50
2009,07,04,14,35,25.50
2009,07,04,14,36,25.60
2009,07,04,14,37,25.60
2009,07,04,14,38,25.70
2009,07,04,14,39,25.70
2009,07,04,14,40,25.70
2009,07,04,14,41,25.70
2009,07,04,14,42,25.70
2009,07,04,14,43,25.80
2009,07,04,14,44,25.90
2009,07,04,14,45,25.80
2009,07,04,14,46,25.80
2009,07,04,14,47,25.80
2009,07,04,14,48,25.80
2009,07,04,14,49,25.80
2009,07,04,14,50,25.80
2009,07,04,14,51,25.80
2009,07,04,14,52,25.70
2009,07,04,14,53,25.50
2009,07,04,14,54,25.40
2009,07,04,14,55,25.30
2009,07,04,14,56,25.30
2009,07,04,14,57,25.20
2009,07,04,14,58,25.30
2009,07,04,14,59,25.30
2009,07,04,15,00,25.40
2009,07,04,15,01,25.60
2009,07,04,15,02,25.70
2009,07,04,15,03,25.80
2009,07,04,15,04,25.90
2009,07,04,15,05,26.00
2009,07,04,15,06,26.00
2009,07,04,15,07,26.00
2009,07,04,15,08,26.00
2009,07,04,15,09,26.00
2009,07,04,15,10,26.10
2009,07,04,15,11,26.10
2009,07,04,15,12,26.10
2009,07,04,15,13,26.00
2009,07,04,15,14,26.00
2009,07,04,15,15,26.00
2009,07,04,15,16,26.10
2009,07,04,15,17,26.30
2009,07,04,15,18,26.30
2009,07,04,15,19,26.40
2009,07,04,15,20,26.40
2009,07,04,15,21,26.40
2009,07,04,15,22,26.50
2009,07,04,15,23,26.60
2009,07,04,15,24,26.60
2009,07,04,15,25,26.40
2009,07,04,15,26,26.30
2009,07,04,15,27,26.20
2009,07,04,15,28,26.20
2009,07,04,15,29,26.20
2009,07,04,15,30,26.30
2009,07,04,15,31,26.40
2009,07,04,15,32,26.40
2009,07,04,15,33,26.40
2009,07,04,15,34,26.60
2009,07,04,15,35,26.60
2009,07,04,15,36,26.60
2009,07,04,15,37,26.60
2009,07,04,15,38,26.60
2009,07,04,15,39,26.60
2009,07,04,15,40,26.70
2009,07,04,15,41,26.70
2009,07,04,15,42,26.70
2009,07,04,15,43,26.70
2009,07,04,15,44,26.60
2009,07,04,15,45,26.60
2009,07,04,15,46,26.60
2009,07,04,15,47,26.60
2009,07,04,15,48,26.60
2009,07,04,15,49,26.50
2009,07,04,15,50,26.40
2009,07,04,15,51,26.40
2009,07,04,15,52,26.40
2009,07,04,15,53,26.60
2009,07,04,15,54,26.60
2009,07,04,15,55,26.60
2009,07,04,15,56,26.60
2009,07,04,15,57,26.60
2009,07,04,15,58,26.60
2009,07,04,15,59,26.60
2009,07,04,16,00,26.60
2009,07,04,16,01,26.60
2009,07,04,16,02,26.60
2009,07,04,16,03,26.70
2009,07,04,16,04,26.70
2009,07,04,16,05,26.70
2009,07,04,16,06,26.80
2009,07,04,16,07,26.90
2009,07,04,16,08,27.00
2009,07,04,16,09,27.10
2009,07,04,16,10,27.30
2009,07,04,16,11,27.30
2009,07,04,16,12,27.40
2009,07,04,16,13,27.50
2009,07,04,16,14,27.60
2009,07,04,16,15,27.50
2009,07,04,16,16,27.30
2009,07,04,16,17,27.30
2009,07,04,16,18,27.30
2009,07,04,16,19,27.30
2009,07,04,16,20,27.30
2009,07,04,16,21,27.30
2009,07,04,16,22,27.30
2009,07,04,16,23,27.30
2009,07,04,16,24,27.30
2009,07,04,16,25,27.30
2009,07,04,16,26,27.30
2009,07,04,16,27,27.30
2009,07,04,16,28,27.40
2009,07,04,16,29,27.40
2009,07,04,16,30,27.40
2009,07,04,16,31,27.30
2009,07,04,16,32,27.20
2009,07,04,16,33,27.20
2009,07,04,16,34,27.00
2009,07,04,16,35,26.90
2009,07,04,16,36,26.80
2009,07,04,16,37,26.70
2009,07,04,16,38,26.60
2009,07,04,16,39,26.60
2009,07,04,16,40,26.50
2009,07,04,16,41,26.40
2009,07,04,16,42,26.40
2009,07,04,16,43,26.50
2009,07,04,16,44,26.60
2009,07,04,16,45,26.60
2009,07,04,16,46,26.70
2009,07,04,16,47,26.60
2009,07,04,16,48,26.60
2009,07,04,16,49,26.60
2009,07,04,16,50,26.60
2009,07,04,16,51,26.60
2009,07,04,16,52,26.70
2009,07,04,16,53,26.80
2009,07,04,16,54,26.80
2009,07,04,16,55,26.90
2009,07,04,16,56,27.10
2009,07,04,16,57,27.10
2009,07,04,16,58,27.20
2009,07,04,16,59,27.20
2009,07,04,17,00,27.30
2009,07,04,17,01,27.30
2009,07,04,17,02,27.30
2009,07,04,17,03,27.30
2009,07,04,17,04,27.40
2009,07,04,17,05,27.40
2009,07,04,17,06,27.40
2009,07,04,17,07,27.30
2009,07,04,17,08,27.20
2009,07,04,17,09,27.10
2009,07,04,17,10,27.10
2009,07,04,17,11,26.90
2009,07,04,17,12,26.90
2009,07,04,17,13,26.90
2009,07,04,17,14,26.90
2009,07,04,17,15,26.90
2009,07,04,17,16,27.00
2009,07,04,17,17,27.10
2009,07,04,17,18,27.10
2009,07,04,17,19,27.10
2009,07,04,17,20,27.10
2009,07,04,17,21,27.10
2009,07,04,17,22,27.00
2009,07,04,17,23,26.80
2009,07,04,17,24,26.80